Weather History for Antigo, WI

Change the Weather History Date:

Tuesday, January 8, 2013

  Actual Average Record
Temperature  
Mean Temperature 19 °F -  
Max Temperature 32 °F 17 °F 46 °F (2003)
Min Temperature 6 °F -5 °F -26 °F (1968)
Degree Days  
Heating Degree Days 46    
Moisture  
Dew Point 19 °F    
Average Humidity 89    
Maximum Humidity 99    
Minimum Humidity 75    
Precipitation  
Precipitation 0.00 in - - ()
Sea Level Pressure  
Sea Level Pressure 29.93 in    
Wind  
Wind Speed 5 mph (SSE)    
Max Wind Speed 18 mph    
Max Gust Speed 24 mph    
Visibility 5 miles    
Events Fog    
Averages and records for this station are not official NWS values.
T = Trace of Precipitation, MM = Missing Value Source: NWS Daily Summary

Daily Weather History Graph

Daily Weather History Graph

Search for Another Location

Airport:

Trip Planner

Search our weather history database for the weather conditions in past years. The results will help you decide how hot, cold, wet, or windy it might be!

Date:

Astronomy

Jan. 08, 2013 Rise Set
Actual Time 7:34 AM CST 4:32 PM CST
Civil Twilight 7:01 AM CST 5:05 PM CST
Nautical Twilight 6:24 AM CST 5:42 PM CST
Astronomical Twilight 5:48 AM CST 6:18 PM CST
Moon 4:06 AM CST (1/8) 1:35 PM CST (1/8)
Length of Visible Light 10h 04m
Length of Day
8h 58m
Waning Crescent, 13% of the Moon is Illuminated
Jan 8
Waning Crescent
Jan 11
New
Jan 18
First Quarter
Jan 26
Full
Feb 3
Last Quarter

Hourly Weather History & Observations

Time (CST) Temp. Windchill Dew Point Humidity Pressure Visibility Wind Dir Wind Speed Gust Speed Precip Events Conditions
12:15 AM 19.4 °F 11.5 °F 18.3 °F 96% 29.94 in 10.0 mi SW 5.8 mph - N/A   Clear
12:55 AM 19.2 °F - 18.7 °F 98% 29.95 in 7.0 mi Calm Calm - N/A   Mostly Cloudy
1:15 AM 19.9 °F 14.9 °F 19.2 °F 97% 29.95 in 5.0 mi SW 3.5 mph - N/A   Overcast
1:35 AM 16.0 °F - 14.5 °F 94% 29.95 in 2.5 mi Calm Calm - N/A   Overcast
1:55 AM 18.7 °F - 17.8 °F 96% 29.96 in 0.8 mi Calm Calm - N/A   Mostly Cloudy
2:15 AM 16.2 °F - 14.5 °F 93% 29.97 in 0.2 mi Calm Calm - N/A Fog Light Freezing Fog
2:35 AM 15.1 °F - 13.5 °F 93% 29.97 in 0.2 mi Calm Calm - N/A Fog Light Freezing Fog
2:55 AM 10.9 °F - 9.0 °F 92% 29.97 in 0.2 mi Calm Calm - N/A Fog Light Freezing Fog
3:15 AM 12.0 °F - 10.2 °F 92% 29.97 in 0.2 mi Calm Calm - N/A Fog Light Freezing Fog
3:35 AM 11.7 °F - 9.9 °F 92% 29.97 in 0.2 mi Calm Calm - N/A Fog Light Freezing Fog
3:55 AM 12.9 °F - 11.5 °F 94% 29.97 in 0.2 mi Calm Calm - N/A Fog Light Freezing Fog
4:15 AM 12.7 °F - 11.1 °F 93% 29.97 in 0.2 mi Calm Calm - N/A Fog Light Freezing Fog
4:35 AM 12.9 °F - 11.1 °F 93% 29.98 in 0.5 mi Calm Calm - N/A Fog Light Freezing Fog
4:55 AM 12.2 °F - 10.2 °F 92% 29.97 in 1.0 mi Calm Calm - N/A   Overcast
5:15 AM 12.2 °F - 10.2 °F 92% 29.98 in 0.2 mi Calm Calm - N/A Fog Light Freezing Fog
5:35 AM 12.4 °F - 10.4 °F 92% 29.98 in 0.2 mi Calm Calm - N/A Fog Light Freezing Fog
5:55 AM 11.8 °F - 9.7 °F 91% 29.98 in 0.2 mi Calm Calm - N/A Fog Light Freezing Fog
6:15 AM 10.9 °F - 8.8 °F 91% 29.98 in 0.2 mi Calm Calm - N/A Fog Light Freezing Fog
6:35 AM 7.9 °F - 5.4 °F 89% 29.99 in 0.2 mi Calm Calm - N/A Fog Light Freezing Fog
6:55 AM 8.2 °F 1.6 °F 6.1 °F 91% 29.99 in 0.2 mi NE 3.5 mph - N/A Fog Light Freezing Fog
7:15 AM 8.6 °F - 6.3 °F 90% 29.99 in 0.2 mi Calm Calm - N/A Fog Light Freezing Fog
7:35 AM 7.2 °F - 4.6 °F 89% 30.00 in 0.2 mi Calm Calm - N/A Fog Light Freezing Fog
7:55 AM 6.4 °F - 3.9 °F 89% 30.01 in 0.2 mi Calm Calm - N/A Fog Light Freezing Fog
8:15 AM 7.7 °F - 5.4 °F 90% 30.01 in 0.2 mi Calm Calm - N/A Fog Light Freezing Fog
8:35 AM 8.6 °F - 6.3 °F 90% 30.02 in 0.2 mi Calm Calm - N/A Fog Light Freezing Fog
8:55 AM 9.3 °F - 7.2 °F 91% 30.01 in 2.5 mi Calm Calm - N/A   Overcast
9:15 AM 12.2 °F - 10.2 °F 92% 30.02 in 2.0 mi Calm Calm - N/A   Overcast
9:35 AM 13.5 °F - 11.7 °F 93% 30.02 in 3.0 mi Calm Calm - N/A   Overcast
9:55 AM 15.6 °F - 14.0 °F 93% 30.02 in 0.2 mi Calm Calm - N/A Fog Light Freezing Fog
10:15 AM 17.4 °F - 16.0 °F 94% 30.02 in 1.5 mi Calm Calm - N/A   Overcast
10:35 AM 19.4 °F - 18.1 °F 95% 30.02 in 1.8 mi Calm Calm - N/A   Overcast
10:55 AM 20.8 °F - 19.6 °F 95% 30.01 in 4.0 mi Calm Calm - N/A   Scattered Clouds
11:15 AM 22.5 °F - 21.4 °F 96% 30.01 in 4.0 mi Calm Calm - N/A   Clear
11:35 AM 23.9 °F 19.5 °F 23.0 °F 96% 29.99 in 5.0 mi SE 3.5 mph - N/A   Clear
11:55 AM 29.3 °F 23.2 °F 29.1 °F 99% 29.98 in 10.0 mi SSE 5.8 mph - N/A   Clear
12:15 PM 29.3 °F 20.8 °F 29.1 °F 99% 29.97 in 10.0 mi SSE 9.2 mph - N/A   Clear
12:35 PM 29.1 °F 21.3 °F 28.9 °F 99% 29.96 in 10.0 mi SSE 8.1 mph - N/A   Clear
12:55 PM 30.7 °F 22.0 °F 30.6 °F 99% 29.95 in 10.0 mi SSE 10.4 mph - N/A   Clear
1:15 PM 32.2 °F 22.3 °F 30.7 °F 94% 29.95 in 10.0 mi SSE 13.8 mph - N/A   Clear
1:55 PM 32.7 °F 23.0 °F 26.4 °F 78% 29.94 in 10.0 mi SSE 13.8 mph - N/A   Clear
2:15 PM 32.0 °F 23.0 °F 25.3 °F 76% 29.94 in 10.0 mi SSE 11.5 mph - N/A   Clear
2:35 PM 32.4 °F 24.6 °F 25.7 °F 76% 29.94 in 10.0 mi SE 9.2 mph - N/A   Clear
2:55 PM 32.4 °F 24.6 °F 25.7 °F 76% 29.93 in 10.0 mi SSE 9.2 mph - N/A   Clear
3:15 PM 32.7 °F 23.9 °F 25.7 °F 75% 29.92 in 10.0 mi SE 11.5 mph - N/A   Clear
3:35 PM 32.4 °F 23.0 °F 25.5 °F 76% 29.91 in 10.0 mi SE 12.7 mph - N/A   Clear
3:55 PM 31.8 °F 21.0 °F 25.2 °F 76% 29.90 in 10.0 mi SE 16.1 mph - N/A   Clear
4:15 PM 31.1 °F 21.9 °F 24.8 °F 77% 29.90 in 10.0 mi SSE 11.5 mph - N/A   Clear
4:35 PM 30.7 °F 21.4 °F 24.6 °F 78% 29.89 in 10.0 mi SSE 11.5 mph 19.6 mph N/A   Clear
4:55 PM 30.0 °F 19.5 °F 24.3 °F 79% 29.87 in 10.0 mi SE 13.8 mph 19.6 mph N/A   Clear
5:15 PM 29.3 °F 18.6 °F 24.1 °F 81% 29.86 in 10.0 mi SSE 13.8 mph 19.6 mph N/A   Clear
5:35 PM 28.6 °F 17.2 °F 24.1 °F 83% 29.86 in 10.0 mi SSE 15.0 mph - N/A   Clear
5:55 PM 28.4 °F 16.6 °F 24.1 °F 84% 29.85 in 7.0 mi SSE 16.1 mph - N/A   Clear
6:15 PM 27.9 °F 15.5 °F 23.9 °F 85% 29.85 in 7.0 mi SSE 17.3 mph - N/A   Clear
6:35 PM 27.7 °F 16.1 °F 23.9 °F 86% 29.84 in 7.0 mi SSE 15.0 mph 21.9 mph N/A   Clear
6:55 PM 27.5 °F 15.9 °F 23.9 °F 86% 29.84 in 7.0 mi South 15.0 mph - N/A   Clear
7:15 PM 28.6 °F 16.0 °F 25.2 °F 87% 29.82 in 7.0 mi SSE 18.4 mph - N/A   Mostly Cloudy
7:35 PM 29.5 °F 17.2 °F 25.9 °F 86% 29.83 in 7.0 mi South 18.4 mph - N/A   Overcast
7:55 PM 29.7 °F 18.6 °F 26.1 °F 86% 29.82 in 7.0 mi South 15.0 mph 21.9 mph N/A   Overcast
8:15 PM 30.0 °F 19.1 °F 26.4 °F 86% 29.82 in 7.0 mi South 15.0 mph - N/A   Overcast
8:35 PM 30.2 °F 19.3 °F 26.6 °F 86% 29.81 in 7.0 mi South 15.0 mph - N/A   Overcast
8:55 PM 30.9 °F 19.8 °F 27.1 °F 86% 29.81 in 7.0 mi SSW 16.1 mph 20.7 mph N/A   Overcast
9:15 PM 31.6 °F 20.4 °F 27.7 °F 85% 29.80 in 10.0 mi SSW 17.3 mph - N/A   Overcast
9:35 PM 32.0 °F 21.2 °F 28.0 °F 85% 29.80 in 10.0 mi SSW 16.1 mph 24.2 mph N/A   Overcast
10:15 PM 32.5 °F 21.5 °F 28.4 °F 85% 29.78 in 10.0 mi SSW 17.3 mph 23.0 mph N/A   Overcast
10:35 PM 32.9 °F 22.0 °F 28.6 °F 84% 29.78 in 10.0 mi SSW 17.3 mph - N/A   Overcast